Orbital Elements at Epoch 2459000.5 (2020-May-31.0) TDB
Reference: JPL 19 (heliocentric ecliptic J2000)
Element | Value | Uncertainty (1-sigma) | Units |
e | .08508368768284108 | 8.16e-08 | |
a | 3.246810268003688 | 5.6382e-08 | au |
q | 2.97055967719542 | 2.6917e-07 | au |
i | 9.529048349436307 | 6.2313e-06 | deg |
node | 121.6889451826611 | 5.6383e-05 | deg |
peri | 227.9846924178692 | 6.82e-05 | deg |
M | 122.0676083109313 | 4.0299e-05 | deg |
tp | 2458275.927699152225 (2018-Jun-06.42769915) | 0.00023907 | TDB |
period | 2136.898001972567 5.85 | 5.5662e-05 1.524e-07 | d yr |
n | .1684684995108258 | 4.3883e-09 | deg/d |
Q | 3.523060858811955 | 6.118e-08 | au |
|
| | Orbit Determination Parameters
Additional Information
|